| time (UTC) | temp F | wind direction | speed MPH | gust MPH | rain 1hr in | rain 24hr in | rain mn in | humidity % | barometer mb |
| 20260903190504 | 88 | 215 | 2.0 | 6.0 | 0.00 | 1.18 | 0.20 | 69 | 1014.0 |
| 20260903190004 | 88 | 214 | 2.0 | 6.0 | 0.00 | 1.19 | 0.20 | 71 | 1014.1 |
| 20260903185504 | 88 | 4 | 1.0 | 3.0 | 0.00 | 1.20 | 0.20 | 73 | 1014.1 |
| 20260903185004 | 88 | 260 | 2.0 | 5.0 | 0.00 | 1.21 | 0.20 | 70 | 1014.0 |
| 20260903184504 | 89 | 241 | 2.0 | 5.0 | 0.00 | 1.21 | 0.20 | 70 | 1013.8 |
| 20260903184004 | 88 | 356 | 2.0 | 4.0 | 0.00 | 1.21 | 0.20 | 76 | 1013.6 |
| 20260903183503 | 87 | 325 | 2.0 | 4.0 | 0.00 | 1.21 | 0.20 | 76 | 1013.5 |
| 20260903183004 | 89 | 231 | 2.0 | 7.0 | 0.00 | 1.21 | 0.20 | 76 | 1013.5 |
| 20260903182525 | 89 | 171 | 2.0 | 7.0 | 0.00 | 1.22 | 0.20 | 78 | 1013.6 |
| 20260903182004 | 88 | 191 | 2.0 | 5.0 | 0.00 | 1.23 | 0.20 | 76 | 1013.8 |
| 20260903181525 | 88 | 230 | 2.0 | 5.0 | 0.00 | 1.23 | 0.20 | 75 | 1013.9 |
| 20260903181025 | 89 | 175 | 3.0 | 5.0 | 0.00 | 1.24 | 0.20 | 78 | 1014.1 |
| 20260903180503 | 89 | 171 | 3.0 | 5.0 | 0.00 | 1.25 | 0.20 | 78 | 1014.4 |
| 20260903180004 | 87 | 182 | 3.0 | 5.0 | 0.00 | 1.26 | 0.20 | 78 | 1014.5 |
| 20260903175504 | 85 | 190 | 2.0 | 5.0 | 0.00 | 1.27 | 0.20 | 82 | 1014.6 |
| 20260903175004 | 83 | 316 | 1.0 | 2.0 | 0.00 | 1.28 | 0.20 | 86 | 1014.8 |
| 20260903174504 | 83 | 262 | 1.0 | 2.0 | 0.00 | 1.28 | 0.20 | 88 | 1014.9 |
| 20260903174004 | 84 | 137 | 2.0 | 4.0 | 0.00 | 1.29 | 0.20 | 86 | 1015.1 |
| 20260903173503 | 84 | 123 | 2.0 | 4.0 | 0.00 | 1.30 | 0.20 | 84 | 1015.3 |
| 20260903173004 | 84 | 124 | 1.0 | 4.0 | 0.00 | 1.30 | 0.20 | 86 | 1015.4 |
| 20260903172504 | 83 | 167 | 1.0 | 3.0 | 0.00 | 1.31 | 0.20 | 86 | 1015.4 |
| 20260903172004 | 83 | 198 | 1.0 | 3.0 | 0.00 | 1.32 | 0.20 | 86 | 1015.4 |
| 20260903171504 | 83 | 203 | 1.0 | 3.0 | 0.00 | 1.33 | 0.20 | 86 | 1015.6 |
| 20260903171004 | 82 | 127 | 1.0 | 3.0 | 0.00 | 1.34 | 0.20 | 88 | 1015.6 |
| 20260903170504 | 81 | 99 | 1.0 | 2.0 | 0.00 | 1.36 | 0.20 | 90 | 1015.5 |
| 20260903170024 | 81 | 94 | 1.0 | 2.0 | 0.00 | 1.39 | 0.20 | 90 | 1015.6 |
| 20260903165503 | 80 | 94 | 1.0 | 2.0 | 0.01 | 1.42 | 0.20 | 91 | 1015.6 |
| 20260903165025 | 80 | 94 | 1.0 | 2.0 | 0.01 | 1.46 | 0.20 | 92 | 1015.6 |
| 20260903164504 | 80 | 94 | 1.0 | 2.0 | 0.03 | 1.56 | 0.20 | 93 | 1015.6 |
| 20260903164003 | 79 | 94 | 1.0 | 2.0 | 0.06 | 1.64 | 0.20 | 96 | 1015.7 |
| 20260903163525 | 78 | 94 | 1.0 | 2.0 | 0.09 | 1.76 | 0.20 | 96 | 1015.5 |
| 20260903163003 | 78 | 94 | 1.0 | 2.0 | 0.09 | 1.79 | 0.20 | 96 | 1015.7 |
| 20260903162503 | 78 | 94 | 1.0 | 2.0 | 0.09 | 1.80 | 0.20 | 96 | 1015.6 |
| 20260903162003 | 78 | 94 | 1.0 | 2.0 | 0.09 | 1.82 | 0.20 | 96 | 1015.5 |
| 20260903161504 | 78 | 94 | 1.0 | 2.0 | 0.09 | 1.83 | 0.20 | 96 | 1015.3 |
| 20260903161004 | 78 | 94 | 1.0 | 2.0 | 0.09 | 1.85 | 0.20 | 96 | 1015.3 |
| 20260903160503 | 78 | 73 | 1.0 | 2.0 | 0.09 | 1.87 | 0.20 | 96 | 1015.4 |
| 20260903160004 | 78 | 43 | 1.0 | 2.0 | 0.10 | 1.89 | 0.20 | 96 | 1015.3 |
| 20260903155503 | 78 | 37 | 1.0 | 2.0 | 0.10 | 1.89 | 0.19 | 96 | 1015.5 |
| 20260903155004 | 78 | 109 | 1.0 | 3.0 | 0.11 | 1.92 | 0.19 | 96 | 1015.6 |
| 20260903154503 | 78 | 135 | 2.0 | 3.0 | 0.09 | 1.91 | 0.17 | 96 | 1015.7 |
| 20260903154003 | 78 | 87 | 2.0 | 3.0 | 0.08 | 1.91 | 0.14 | 96 | 1015.8 |
| 20260903153524 | 78 | 78 | 2.0 | 3.0 | 0.06 | 1.94 | 0.11 | 96 | 1015.6 |
| 20260903153004 | 78 | 78 | 2.0 | 3.0 | 0.06 | 2.04 | 0.11 | 96 | 1015.7 |
| 20260903152524 | 78 | 78 | 2.0 | 3.0 | 0.06 | 2.12 | 0.11 | 96 | 1015.5 |
| 20260903152025 | 77 | 78 | 2.0 | 3.0 | 0.06 | 2.16 | 0.11 | 96 | 1015.4 |
| 20260903151503 | 77 | 78 | 2.0 | 3.0 | 0.06 | 2.19 | 0.11 | 96 | 1015.4 |
| 20260903151003 | 77 | 78 | 2.0 | 3.0 | 0.06 | 2.22 | 0.11 | 96 | 1015.5 |
| 20260903150503 | 77 | 80 | 1.0 | 3.0 | 0.06 | 2.27 | 0.11 | 96 | 1015.3 |
| 20260903150003 | 77 | 217 | 1.0 | 2.0 | 0.05 | 2.35 | 0.10 | 96 | 1015.4 |
| 20260903145504 | 78 | 219 | 2.0 | 3.0 | 0.04 | 2.39 | 0.09 | 96 | 1015.5 |
| 20260903145004 | 78 | 194 | 1.0 | 3.0 | 0.03 | 2.42 | 0.08 | 96 | 1015.6 |
| 20260903144503 | 78 | 72 | 2.0 | 3.0 | 0.03 | 2.47 | 0.08 | 96 | 1015.4 |
| 20260903144003 | 78 | 73 | 3.0 | 3.0 | 0.01 | 2.57 | 0.06 | 96 | 1015.5 |
| 20260903143503 | 78 | 73 | 3.0 | 3.0 | 0.00 | 2.66 | 0.05 | 96 | 1015.3 |
| 20260903143004 | 78 | 73 | 3.0 | 3.0 | 0.00 | 2.68 | 0.05 | 96 | 1015.3 |
| 20260903142503 | 78 | 73 | 3.0 | 3.0 | 0.00 | 2.70 | 0.05 | 96 | 1015.3 |
| 20260903142025 | 78 | 73 | 3.0 | 3.0 | 0.00 | 2.73 | 0.05 | 96 | 1015.3 |
| 20260903141503 | 78 | 73 | 3.0 | 3.0 | 0.00 | 2.75 | 0.05 | 96 | 1015.2 |
| 20260903141024 | 78 | 73 | 3.0 | 3.0 | 0.00 | 2.76 | 0.05 | 96 | 1015.2 |
| 20260903140503 | 78 | 73 | 3.0 | 3.0 | 0.00 | 2.78 | 0.05 | 96 | 1015.2 |
| 20260903140003 | 78 | 73 | 3.0 | 3.0 | 0.00 | 2.79 | 0.05 | 96 | 1015.2 |
| 20260903135503 | 78 | 73 | 3.0 | 3.0 | 0.00 | 2.81 | 0.05 | 96 | 1015.2 |
| 20260903135024 | 78 | 73 | 3.0 | 3.0 | 0.00 | 2.82 | 0.05 | 96 | 1015.3 |
| 20260903134503 | 78 | 73 | 3.0 | 3.0 | 0.00 | 2.84 | 0.05 | 96 | 1015.3 |
| 20260903134024 | 78 | 73 | 3.0 | 3.0 | 0.00 | 2.86 | 0.05 | 96 | 1015.2 |
| 20260903133504 | 78 | 73 | 3.0 | 3.0 | 0.00 | 2.88 | 0.05 | 96 | 1015.2 |
| 20260903133003 | 78 | 73 | 3.0 | 3.0 | 0.00 | 2.90 | 0.05 | 96 | 1015.1 |
| 20260903132524 | 78 | 73 | 3.0 | 3.0 | 0.00 | 2.92 | 0.05 | 96 | 1015.1 |
| 20260903132004 | 78 | 73 | 3.0 | 3.0 | 0.00 | 2.94 | 0.05 | 96 | 1015.1 |
| 20260903131503 | 78 | 73 | 3.0 | 3.0 | 0.01 | 3.00 | 0.05 | 96 | 1015.2 |
| 20260903131003 | 78 | 73 | 3.0 | 3.0 | 0.01 | 3.04 | 0.05 | 96 | 1015.3 |
| 20260903130503 | 78 | 73 | 3.0 | 3.0 | 0.01 | 3.07 | 0.05 | 96 | 1015.3 |
| 20260903130003 | 78 | 73 | 3.0 | 3.0 | 0.01 | 3.08 | 0.05 | 96 | 1015.2 |
| 20260903125503 | 78 | 73 | 3.0 | 3.0 | 0.01 | 3.10 | 0.05 | 96 | 1015.1 |
| 20260903125003 | 77 | 73 | 3.0 | 3.0 | 0.01 | 3.11 | 0.05 | 96 | 1015.0 |
| 20260903124503 | 77 | 73 | 3.0 | 3.0 | 0.01 | 3.11 | 0.05 | 96 | 1014.9 |
| 20260903124003 | 77 | 73 | 3.0 | 3.0 | 0.01 | 3.12 | 0.05 | 96 | 1014.9 |
| 20260903123524 | 77 | 73 | 3.0 | 3.0 | 0.01 | 3.14 | 0.05 | 96 | 1015.0 |
| 20260903123003 | 77 | 73 | 3.0 | 3.0 | 0.01 | 3.15 | 0.05 | 96 | 1015.0 |
| 20260903122503 | 77 | 73 | 3.0 | 3.0 | 0.01 | 3.17 | 0.05 | 96 | 1014.9 |
| 20260903122003 | 77 | 73 | 3.0 | 3.0 | 0.02 | 3.18 | 0.05 | 96 | 1014.9 |
| 20260903121503 | 77 | 73 | 3.0 | 3.0 | 0.01 | 3.17 | 0.04 | 96 | 1014.7 |
| 20260903121003 | 77 | 73 | 3.0 | 3.0 | 0.01 | 3.18 | 0.04 | 96 | 1014.6 |
| 20260903120524 | 77 | 73 | 3.0 | 3.0 | 0.01 | 3.19 | 0.04 | 96 | 1014.4 |
| 20260903120003 | 77 | 73 | 3.0 | 3.0 | 0.01 | 3.20 | 0.04 | 96 | 1014.3 |
| 20260903115524 | 77 | 73 | 3.0 | 3.0 | 0.01 | 3.21 | 0.04 | 96 | 1014.2 |
| 20260903115003 | 77 | 73 | 3.0 | 3.0 | 0.01 | 3.22 | 0.04 | 96 | 1014.3 |
| 20260903114504 | 77 | 73 | 3.0 | 3.0 | 0.02 | 3.23 | 0.04 | 96 | 1014.3 |
| 20260903114003 | 77 | 73 | 3.0 | 3.0 | 0.02 | 3.23 | 0.04 | 96 | 1014.3 |
| 20260903113503 | 77 | 73 | 3.0 | 3.0 | 0.02 | 3.24 | 0.04 | 96 | 1014.3 |
| 20260903113003 | 77 | 73 | 3.0 | 3.0 | 0.02 | 3.25 | 0.04 | 96 | 1014.2 |
| 20260903112503 | 77 | 73 | 3.0 | 3.0 | 0.02 | 3.26 | 0.04 | 96 | 1014.2 |
| 20260903112004 | 77 | 73 | 3.0 | 3.0 | 0.01 | 3.26 | 0.03 | 96 | 1014.1 |
| 20260903111503 | 77 | 73 | 3.0 | 3.0 | 0.01 | 3.27 | 0.03 | 96 | 1014.1 |
| 20260903111004 | 77 | 73 | 3.0 | 3.0 | 0.01 | 3.28 | 0.03 | 96 | 1014.1 |
| 20260903110504 | 77 | 73 | 3.0 | 3.0 | 0.01 | 3.29 | 0.03 | 96 | 1014.1 |
| 20260903110024 | 77 | 73 | 3.0 | 3.0 | 0.01 | 3.30 | 0.03 | 96 | 1014.2 |
| 20260903105524 | 77 | 73 | 3.0 | 3.0 | 0.01 | 3.31 | 0.03 | 96 | 1014.3 |
| 20260903105003 | 77 | 73 | 3.0 | 3.0 | 0.01 | 3.32 | 0.03 | 96 | 1014.3 |
| 20260903104524 | 77 | 73 | 3.0 | 3.0 | 0.00 | 3.33 | 0.02 | 96 | 1014.3 |
| 20260903104004 | 77 | 73 | 3.0 | 3.0 | 0.00 | 3.35 | 0.02 | 96 | 1014.2 |
| 20260903103524 | 77 | 73 | 3.0 | 3.0 | 0.00 | 3.36 | 0.02 | 96 | 1014.2 |
| 20260903103003 | 77 | 73 | 3.0 | 3.0 | 0.00 | 3.37 | 0.02 | 96 | 1014.2 |
| 20260903102504 | 77 | 73 | 3.0 | 3.0 | 0.00 | 3.39 | 0.02 | 96 | 1014.2 |
| 20260903102003 | 77 | 73 | 3.0 | 3.0 | 0.00 | 3.41 | 0.02 | 96 | 1014.2 |
| 20260903101504 | 77 | 73 | 3.0 | 3.0 | 0.00 | 3.42 | 0.02 | 96 | 1014.1 |
| 20260903101003 | 77 | 73 | 3.0 | 3.0 | 0.00 | 3.44 | 0.02 | 96 | 1014.2 |
| 20260903100503 | 77 | 73 | 3.0 | 3.0 | 0.00 | 3.46 | 0.02 | 96 | 1014.1 |
| 20260903100003 | 77 | 73 | 3.0 | 3.0 | 0.01 | 3.48 | 0.02 | 96 | 1014.0 |
| 20260903095524 | 77 | 73 | 3.0 | 3.0 | 0.01 | 3.50 | 0.02 | 96 | 1014.0 |
| 20260903095003 | 77 | 73 | 3.0 | 3.0 | 0.01 | 3.52 | 0.02 | 96 | 1014.0 |
| 20260903094503 | 77 | 73 | 3.0 | 3.0 | 0.01 | 3.54 | 0.02 | 96 | 1014.0 |
| 20260903094003 | 77 | 73 | 3.0 | 3.0 | 0.01 | 3.56 | 0.02 | 96 | 1014.0 |
| 20260903093503 | 77 | 73 | 3.0 | 3.0 | 0.01 | 3.57 | 0.02 | 96 | 1013.9 |
| 20260903093003 | 77 | 73 | 3.0 | 3.0 | 0.01 | 3.59 | 0.02 | 96 | 1014.0 |
| 20260903092503 | 77 | 73 | 3.0 | 3.0 | 0.01 | 3.60 | 0.02 | 96 | 1013.8 |
| 20260903092003 | 77 | 73 | 3.0 | 3.0 | 0.01 | 3.61 | 0.02 | 96 | 1013.8 |
| 20260903091503 | 77 | 73 | 3.0 | 3.0 | 0.01 | 3.62 | 0.02 | 96 | 1013.8 |
| 20260903091003 | 77 | 73 | 3.0 | 3.0 | 0.01 | 3.64 | 0.02 | 96 | 1013.7 |
| 20260903090503 | 77 | 73 | 3.0 | 3.0 | 0.01 | 3.66 | 0.02 | 96 | 1013.7 |
| 20260903090003 | 77 | 73 | 3.0 | 3.0 | 0.00 | 3.67 | 0.01 | 96 | 1013.6 |
| 20260903085503 | 77 | 73 | 3.0 | 3.0 | 0.00 | 3.68 | 0.01 | 96 | 1013.5 |
| 20260903085003 | 77 | 73 | 3.0 | 3.0 | 0.00 | 3.70 | 0.01 | 96 | 1013.5 |
| 20260903084503 | 77 | 73 | 3.0 | 3.0 | 0.00 | 3.72 | 0.01 | 96 | 1013.4 |
| 20260903084024 | 77 | 73 | 3.0 | 3.0 | 0.00 | 3.74 | 0.01 | 96 | 1013.4 |
| 20260903083503 | 77 | 73 | 3.0 | 3.0 | 0.00 | 3.75 | 0.01 | 96 | 1013.5 |
| 20260903083003 | 77 | 73 | 3.0 | 3.0 | 0.00 | 3.76 | 0.01 | 96 | 1013.4 |
| 20260903082503 | 77 | 73 | 3.0 | 3.0 | 0.00 | 3.77 | 0.01 | 96 | 1013.5 |
| 20260903082003 | 76 | 73 | 3.0 | 3.0 | 0.00 | 3.77 | 0.01 | 96 | 1013.5 |
| 20260903081503 | 76 | 73 | 3.0 | 3.0 | 0.00 | 3.78 | 0.01 | 96 | 1013.5 |
| 20260903081003 | 76 | 73 | 3.0 | 3.0 | 0.00 | 3.79 | 0.01 | 96 | 1013.6 |
| 20260903080524 | 76 | 73 | 3.0 | 3.0 | 0.01 | 3.80 | 0.01 | 96 | 1013.6 |
| 20260903080003 | 76 | 73 | 3.0 | 3.0 | 0.01 | 3.82 | 0.01 | 96 | 1013.7 |
| 20260903075503 | 76 | 73 | 3.0 | 3.0 | 0.01 | 3.83 | 0.01 | 96 | 1013.6 |
| 20260903075003 | 76 | 73 | 3.0 | 3.0 | 0.01 | 3.84 | 0.01 | 96 | 1013.6 |
| 20260903074503 | 76 | 73 | 3.0 | 3.0 | 0.01 | 3.84 | 0.01 | 96 | 1013.5 |
| 20260903074003 | 76 | 73 | 3.0 | 3.0 | 0.01 | 3.85 | 0.01 | 96 | 1013.5 |
| 20260903073503 | 76 | 73 | 3.0 | 3.0 | 0.01 | 3.86 | 0.01 | 96 | 1013.4 |
| 20260903073003 | 76 | 73 | 3.0 | 3.0 | 0.01 | 3.88 | 0.01 | 96 | 1013.4 |
| 20260903072503 | 76 | 73 | 3.0 | 3.0 | 0.01 | 3.88 | 0.01 | 96 | 1013.4 |
| 20260903072003 | 76 | 73 | 3.0 | 3.0 | 0.01 | 3.89 | 0.01 | 96 | 1013.3 |
| 20260903071503 | 76 | 73 | 3.0 | 3.0 | 0.01 | 3.89 | 0.01 | 96 | 1013.4 |
| 20260903071024 | 76 | 73 | 3.0 | 3.0 | 0.01 | 3.89 | 0.01 | 96 | 1013.4 |
| 20260903070524 | 76 | 73 | 3.0 | 3.0 | 0.00 | 3.88 | 0.01 | 96 | 1013.5 |
| 20260903070003 | 76 | 73 | 3.0 | 3.0 | 0.00 | 3.88 | 0.00 | 96 | 1013.6 |
| 20260903065503 | 76 | 73 | 3.0 | 3.0 | 0.00 | 3.88 | 0.00 | 96 | 1013.6 |
| 20260903065003 | 76 | 73 | 3.0 | 3.0 | 0.00 | 3.88 | 0.00 | 96 | 1013.8 |
| 20260903064503 | 76 | 73 | 3.0 | 3.0 | 0.00 | 3.88 | 0.00 | 96 | 1013.8 |
| 20260903064003 | 76 | 73 | 3.0 | 3.0 | 0.00 | 3.88 | 0.00 | 96 | 1013.8 |
| 20260903063504 | 76 | 73 | 3.0 | 3.0 | 0.00 | 3.88 | 0.00 | 96 | 1013.9 |
| 20260903063003 | 76 | 73 | 2.0 | 3.0 | 0.00 | 3.88 | 0.00 | 95 | 1013.8 |
| 20260903062503 | 76 | 73 | 2.0 | 3.0 | 0.00 | 3.88 | 0.00 | 96 | 1013.8 |
| 20260903062003 | 76 | 73 | 3.0 | 3.0 | 0.00 | 3.88 | 0.00 | 96 | 1013.8 |
| 20260903061503 | 76 | 73 | 2.0 | 3.0 | 0.00 | 3.88 | 0.00 | 96 | 1013.9 |
| 20260903061003 | 76 | 73 | 2.0 | 3.0 | 0.00 | 3.88 | 0.00 | 96 | 1014.0 |
| 20260903060503 | 76 | 73 | 2.0 | 3.0 | 0.00 | 3.88 | 0.00 | 96 | 1013.9 |
| 20260903060024 | 76 | 73 | 2.0 | 3.0 | 0.00 | 3.88 | 0.00 | 96 | 1013.9 |
| 20260903055503 | 76 | 73 | 2.0 | 3.0 | 0.00 | 3.88 | 0.00 | 96 | 1013.9 |
| 20260903055003 | 77 | 73 | 3.0 | 3.0 | 0.00 | 3.88 | 0.00 | 96 | 1013.9 |
| 20260903054503 | 77 | 73 | 3.0 | 3.0 | 0.00 | 3.88 | 0.00 | 96 | 1013.8 |
| 20260903054024 | 77 | 73 | 3.0 | 3.0 | 0.00 | 3.89 | 0.00 | 96 | 1013.8 |
| 20260903053503 | 77 | 73 | 3.0 | 3.0 | 0.00 | 3.89 | 0.00 | 96 | 1013.8 |
| 20260903053003 | 77 | 73 | 3.0 | 3.0 | 0.00 | 3.90 | 0.00 | 96 | 1013.9 |
| 20260903052524 | 77 | 73 | 3.0 | 3.0 | 0.00 | 3.90 | 0.00 | 96 | 1013.9 |
| 20260903052003 | 77 | 73 | 3.0 | 3.0 | 0.00 | 3.90 | 0.00 | 96 | 1013.9 |
| 20260903051503 | 77 | 73 | 3.0 | 3.0 | 0.00 | 3.90 | 0.00 | 96 | 1013.9 |
| 20260903051003 | 77 | 73 | 3.0 | 3.0 | 0.00 | 3.91 | 0.00 | 96 | 1013.8 |
| 20260903050503 | 77 | 73 | 3.0 | 3.0 | 0.00 | 3.91 | 0.00 | 96 | 1013.8 |
| 20260903050003 | 77 | 73 | 3.0 | 3.0 | 0.00 | 3.91 | 0.00 | 96 | 1013.8 |
| 20260903045503 | 77 | 73 | 3.0 | 3.0 | 0.01 | 3.91 | 3.91 | 96 | 1013.8 |
| 20260903045024 | 77 | 73 | 3.0 | 3.0 | 0.01 | 3.92 | 3.91 | 96 | 1013.7 |
| 20260903044503 | 77 | 73 | 3.0 | 3.0 | 0.01 | 3.92 | 3.91 | 96 | 1013.7 |
| 20260903044003 | 77 | 73 | 3.0 | 3.0 | 0.01 | 3.92 | 3.91 | 96 | 1013.7 |
| 20260903043524 | 77 | 73 | 3.0 | 3.0 | 0.01 | 3.92 | 3.91 | 96 | 1013.8 |
| 20260903043003 | 77 | 73 | 3.0 | 3.0 | 0.01 | 3.92 | 3.91 | 96 | 1013.7 |
| 20260903042503 | 77 | 73 | 3.0 | 3.0 | 0.01 | 3.92 | 3.91 | 96 | 1013.6 |
| 20260903042003 | 77 | 73 | 3.0 | 3.0 | 0.02 | 3.92 | 3.91 | 96 | 1013.5 |
| 20260903041503 | 77 | 73 | 3.0 | 3.0 | 0.02 | 3.92 | 3.91 | 96 | 1013.6 |
| 20260903041003 | 77 | 73 | 3.0 | 3.0 | 0.02 | 3.92 | 3.91 | 96 | 1013.7 |
| 20260903040503 | 77 | 73 | 3.0 | 3.0 | 0.03 | 3.92 | 3.91 | 96 | 1013.7 |
| 20260903040003 | 77 | 73 | 3.0 | 3.0 | 0.04 | 3.92 | 3.91 | 96 | 1013.6 |
| 20260903035503 | 77 | 73 | 3.0 | 3.0 | 0.03 | 3.91 | 3.90 | 96 | 1013.7 |
| 20260903035003 | 77 | 73 | 3.0 | 3.0 | 0.04 | 3.91 | 3.90 | 96 | 1013.7 |
| 20260903034503 | 77 | 73 | 3.0 | 3.0 | 0.04 | 3.91 | 3.90 | 96 | 1013.7 |
| 20260903034024 | 77 | 73 | 3.0 | 3.0 | 0.05 | 3.91 | 3.90 | 96 | 1013.7 |
| 20260903033503 | 77 | 73 | 3.0 | 3.0 | 0.05 | 3.91 | 3.90 | 96 | 1013.6 |
| 20260903033003 | 77 | 73 | 3.0 | 3.0 | 0.05 | 3.91 | 3.90 | 96 | 1013.6 |
| 20260903032503 | 77 | 73 | 3.0 | 3.0 | 0.05 | 3.91 | 3.90 | 96 | 1013.4 |
| 20260903032003 | 77 | 73 | 3.0 | 3.0 | 0.05 | 3.90 | 3.89 | 96 | 1013.4 |
| 20260903031503 | 77 | 73 | 3.0 | 3.0 | 0.05 | 3.90 | 3.89 | 96 | 1013.4 |
| 20260903031003 | 77 | 73 | 3.0 | 3.0 | 0.06 | 3.90 | 3.89 | 96 | 1013.3 |
| 20260903030503 | 77 | 73 | 3.0 | 3.0 | 0.05 | 3.89 | 3.88 | 96 | 1013.3 |
| 20260903030003 | 76 | 73 | 3.0 | 3.0 | 0.05 | 3.88 | 3.87 | 96 | 1013.6 |
| 20260903025503 | 76 | 73 | 3.0 | 3.0 | 0.05 | 3.88 | 3.87 | 96 | 1013.5 |
| 20260903025003 | 76 | 73 | 3.0 | 3.0 | 0.05 | 3.87 | 3.86 | 96 | 1013.4 |
| 20260903024524 | 76 | 73 | 3.0 | 3.0 | 0.06 | 3.87 | 3.86 | 96 | 1013.4 |
| 20260903024024 | 76 | 73 | 3.0 | 3.0 | 0.05 | 3.86 | 3.85 | 96 | 1013.4 |
| 20260903023503 | 76 | 73 | 3.0 | 3.0 | 0.06 | 3.86 | 3.85 | 96 | 1013.5 |
| 20260903023024 | 76 | 73 | 3.0 | 3.0 | 0.06 | 3.86 | 3.85 | 96 | 1013.6 |
| 20260903022503 | 76 | 73 | 3.0 | 3.0 | 0.07 | 3.86 | 3.85 | 96 | 1013.5 |
| 20260903022003 | 76 | 73 | 3.0 | 3.0 | 0.07 | 3.85 | 3.84 | 96 | 1013.4 |
| 20260903021503 | 76 | 73 | 3.0 | 3.0 | 0.08 | 3.85 | 3.84 | 96 | 1013.2 |
| 20260903021003 | 76 | 73 | 3.0 | 3.0 | 0.08 | 3.84 | 3.83 | 96 | 1013.2 |
| 20260903020524 | 76 | 73 | 3.0 | 3.0 | 0.08 | 3.84 | 3.83 | 96 | 1013.0 |
| 20260903020003 | 76 | 73 | 3.0 | 3.0 | 0.08 | 3.83 | 3.82 | 96 | 1012.9 |
| 20260903015503 | 76 | 73 | 3.0 | 3.0 | 0.09 | 3.83 | 3.82 | 96 | 1012.8 |
| 20260903015003 | 75 | 73 | 3.0 | 3.0 | 0.08 | 3.82 | 3.81 | 96 | 1012.7 |
| 20260903014503 | 75 | 73 | 3.0 | 3.0 | 0.07 | 3.81 | 3.80 | 96 | 1012.8 |
| 20260903014003 | 75 | 73 | 3.0 | 3.0 | 0.08 | 3.81 | 3.80 | 96 | 1012.8 |
| 20260903013503 | 75 | 73 | 3.0 | 3.0 | 0.08 | 3.80 | 3.79 | 96 | 1012.7 |
| 20260903013024 | 75 | 73 | 3.0 | 3.0 | 0.09 | 3.80 | 3.79 | 96 | 1012.9 |
| 20260903012503 | 75 | 73 | 3.0 | 3.0 | 0.09 | 3.79 | 3.78 | 96 | 1012.9 |
| 20260903012024 | 74 | 73 | 3.0 | 3.0 | 0.08 | 3.78 | 3.77 | 96 | 1012.9 |
| 20260903011524 | 74 | 73 | 3.0 | 3.0 | 0.08 | 3.77 | 3.76 | 96 | 1012.8 |
| 20260903011004 | 74 | 73 | 3.0 | 3.0 | 0.08 | 3.76 | 3.75 | 96 | 1012.8 |
| 20260903010504 | 74 | 73 | 3.0 | 3.0 | 0.09 | 3.76 | 3.75 | 95 | 1012.8 |
| 20260903010004 | 74 | 73 | 3.0 | 3.0 | 0.08 | 3.75 | 3.74 | 95 | 1012.8 |
| 20260903005525 | 74 | 73 | 3.0 | 3.0 | 0.09 | 3.74 | 3.73 | 95 | 1012.6 |
| 20260903005004 | 74 | 74 | 3.0 | 3.0 | 0.10 | 3.74 | 3.73 | 95 | 1012.6 |
| 20260903004504 | 74 | 97 | 2.0 | 3.0 | 0.12 | 3.74 | 3.73 | 95 | 1012.5 |
| 20260903004004 | 74 | 193 | 2.0 | 2.0 | 0.12 | 3.73 | 3.72 | 95 | 1012.4 |
| 20260903003504 | 74 | 207 | 2.0 | 2.0 | 0.12 | 3.72 | 3.71 | 95 | 1012.5 |
| 20260903003004 | 74 | 207 | 2.0 | 2.0 | 0.13 | 3.71 | 3.70 | 95 | 1012.7 |
| 20260903002504 | 74 | 207 | 2.0 | 2.0 | 0.14 | 3.70 | 3.69 | 95 | 1012.8 |
| 20260903002004 | 74 | 207 | 2.0 | 2.0 | 0.16 | 3.70 | 3.69 | 95 | 1012.8 |
| 20260903001504 | 74 | 207 | 2.0 | 2.0 | 0.17 | 3.69 | 3.68 | 95 | 1012.7 |
| 20260903001004 | 74 | 207 | 2.0 | 2.0 | 0.19 | 3.68 | 3.67 | 95 | 1012.9 |
| 20260903000504 | 74 | 207 | 2.0 | 2.0 | 0.20 | 3.67 | 3.66 | 95 | 1012.9 |
| 20260903000025 | 74 | 207 | 2.0 | 2.0 | 0.23 | 3.67 | 3.66 | 95 | 1013.0 |
| 20260902235525 | 74 | 207 | 2.0 | 2.0 | 0.24 | 3.65 | 3.64 | 95 | 1013.0 |
| 20260902235025 | 74 | 207 | 2.0 | 2.0 | 0.26 | 3.64 | 3.63 | 95 | 1013.0 |
| 20260902234504 | 74 | 207 | 2.0 | 2.0 | 0.26 | 3.62 | 3.61 | 95 | 1013.1 |
| 20260902234004 | 74 | 207 | 2.0 | 2.0 | 0.27 | 3.61 | 3.60 | 95 | 1013.2 |
| 20260902233504 | 74 | 207 | 2.0 | 2.0 | 0.29 | 3.60 | 3.59 | 95 | 1013.2 |
| 20260902233004 | 74 | 207 | 2.0 | 2.0 | 0.28 | 3.58 | 3.57 | 95 | 1013.2 |
| 20260902232525 | 74 | 207 | 2.0 | 2.0 | 0.27 | 3.56 | 3.55 | 95 | 1013.1 |
| 20260902232004 | 74 | 182 | 2.0 | 4.0 | 0.26 | 3.54 | 3.53 | 95 | 1013.2 |
| 20260902231504 | 74 | 160 | 3.0 | 4.0 | 0.24 | 3.52 | 3.51 | 95 | 1013.1 |
| 20260902231025 | 74 | 150 | 3.0 | 6.0 | 0.22 | 3.49 | 3.49 | 95 | 1013.3 |
| 20260902230504 | 74 | 142 | 3.0 | 6.0 | 0.20 | 3.47 | 3.46 | 95 | 1013.3 |
| 20260902230004 | 74 | 137 | 3.0 | 6.0 | 0.18 | 3.44 | 3.43 | 95 | 1013.4 |
| 20260902225504 | 74 | 120 | 2.0 | 3.0 | 0.15 | 3.41 | 3.40 | 95 | 1013.3 |
| 20260902225004 | 74 | 128 | 1.0 | 4.0 | 0.13 | 3.38 | 3.37 | 95 | 1013.3 |
| 20260902224504 | 74 | 136 | 2.0 | 4.0 | 0.12 | 3.36 | 3.35 | 95 | 1013.3 |
| 20260902224004 | 74 | 149 | 2.0 | 7.0 | 0.11 | 3.34 | 3.33 | 95 | 1013.3 |
| 20260902223504 | 75 | 149 | 2.0 | 7.0 | 0.10 | 3.31 | 3.31 | 95 | 1013.2 |
| 20260902223004 | 75 | 111 | 2.0 | 5.0 | 0.11 | 3.30 | 3.29 | 95 | 1013.1 |
| 20260902222504 | 75 | 85 | 2.0 | 3.0 | 0.11 | 3.29 | 3.28 | 95 | 1013.2 |
| 20260902222004 | 75 | 82 | 1.0 | 3.0 | 0.12 | 3.28 | 3.27 | 95 | 1013.1 |
| 20260902221504 | 75 | 0 | 0.0 | 0.0 | 0.13 | 3.28 | 3.27 | 95 | 1013.0 |
| 20260902221004 | 75 | 0 | 0.0 | 0.0 | 0.14 | 3.27 | 3.26 | 95 | 1013.1 |
| 20260902220504 | 75 | 0 | 0.0 | 0.0 | 0.16 | 3.27 | 3.26 | 95 | 1013.2 |
| 20260902220004 | 75 | 59 | 1.0 | 2.0 | 0.16 | 3.26 | 3.25 | 95 | 1013.3 |
| 20260902215504 | 75 | 63 | 1.0 | 2.0 | 0.16 | 3.26 | 3.25 | 95 | 1013.0 |
| 20260902215004 | 75 | 62 | 1.0 | 2.0 | 0.16 | 3.25 | 3.24 | 95 | 1012.9 |
| 20260902214504 | 75 | 63 | 1.0 | 2.0 | 0.16 | 3.24 | 3.23 | 95 | 1012.7 |
| 20260902214004 | 75 | 79 | 1.0 | 3.0 | 0.15 | 3.23 | 3.22 | 95 | 1012.8 |
| 20260902213504 | 75 | 83 | 1.0 | 3.0 | 0.14 | 3.21 | 3.20 | 95 | 1012.9 |
| 20260902213004 | 75 | 81 | 0.0 | 3.0 | 0.12 | 3.19 | 3.18 | 95 | 1013.2 |
| 20260902212504 | 75 | 0 | 0.0 | 0.0 | 0.11 | 3.18 | 3.17 | 94 | 1013.4 |
| 20260902212004 | 75 | 197 | 1.0 | 3.0 | 0.09 | 3.16 | 3.15 | 94 | 1013.4 |
| 20260902211504 | 75 | 178 | 2.0 | 4.0 | 0.09 | 3.15 | 3.14 | 95 | 1013.3 |
| 20260902211004 | 76 | 160 | 4.0 | 10.0 | 0.07 | 3.13 | 3.12 | 95 | 1013.4 |
| 20260902210504 | 76 | 167 | 8.0 | 10.0 | 0.06 | 3.11 | 3.10 | 95 | 1013.1 |
| 20260902210004 | 76 | 171 | 10.0 | 10.0 | 0.05 | 3.10 | 3.09 | 95 | 1013.3 |
| 20260902205504 | 76 | 171 | 10.0 | 10.0 | 0.05 | 3.10 | 3.09 | 95 | 1013.3 |
| 20260902205004 | 76 | 171 | 10.0 | 10.0 | 0.06 | 3.10 | 3.08 | 95 | 1013.2 |
| 20260902204504 | 76 | 171 | 10.0 | 10.0 | 0.05 | 3.15 | 3.07 | 95 | 1012.9 |
| 20260902204025 | 76 | 171 | 10.0 | 10.0 | 0.05 | 3.15 | 3.07 | 95 | 1012.8 |
| 20260902203504 | 76 | 171 | 10.0 | 10.0 | 0.04 | 3.14 | 3.06 | 95 | 1013.0 |
| 20260902203004 | 76 | 171 | 10.0 | 10.0 | 0.04 | 3.14 | 3.06 | 95 | 1013.1 |
| 20260902202504 | 76 | 171 | 10.0 | 10.0 | 0.06 | 3.14 | 3.06 | 95 | 1012.9 |
| 20260902202004 | 76 | 171 | 10.0 | 10.0 | 0.08 | 3.14 | 3.06 | 95 | 1012.8 |
| 20260902201504 | 76 | 171 | 10.0 | 10.0 | 0.09 | 3.13 | 3.05 | 95 | 1012.8 |
| 20260902201004 | 76 | 171 | 10.0 | 10.0 | 0.10 | 3.13 | 3.05 | 95 | 1012.7 |
| 20260902200504 | 76 | 171 | 10.0 | 10.0 | 0.11 | 3.12 | 3.04 | 95 | 1012.8 |
| 20260902200025 | 76 | 171 | 10.0 | 10.0 | 0.12 | 3.13 | 3.04 | 94 | 1012.8 |
| 20260902195504 | 76 | 171 | 10.0 | 10.0 | 0.13 | 3.13 | 3.04 | 94 | 1012.7 |
| 20260902195004 | 76 | 171 | 10.0 | 10.0 | 0.12 | 3.11 | 3.02 | 94 | 1012.9 |
| 20260902194504 | 76 | 171 | 10.0 | 10.0 | 0.12 | 3.11 | 3.02 | 94 | 1013.0 |
| 20260902194004 | 76 | 171 | 10.0 | 10.0 | 0.12 | 3.11 | 3.02 | 94 | 1013.1 |
| 20260902193504 | 76 | 171 | 10.0 | 10.0 | 0.12 | 3.11 | 3.02 | 94 | 1013.2 |
| 20260902193004 | 76 | 171 | 10.0 | 10.0 | 0.12 | 3.11 | 3.02 | 94 | 1013.2 |
| 20260902192504 | 76 | 171 | 10.0 | 10.0 | 0.11 | 3.09 | 3.00 | 94 | 1013.1 |
| 20260902192004 | 76 | 171 | 10.0 | 10.0 | 0.10 | 3.07 | 2.98 | 94 | 1013.1 |
| 20260902191504 | 75 | 171 | 10.0 | 10.0 | 0.08 | 3.05 | 2.96 | 94 | 1013.0 |
| 20260902191004 | 75 | 171 | 10.0 | 10.0 | 0.08 | 3.04 | 2.95 | 94 | 1013.0 |